Total_Precipitation_Accumulation
0.04 0.05 0.04 0.04 0.03 0.02 0.02 0.03 0.03 0.03 0.03 0.04 0.03 0.03 0.03 0.03 0.02 0.02 0.02 0.03 0.02 0.02 0.02 0.01 0.01 0.01 0.01 0.01 0.00 0.00 0.00 0.01 0.00 0.00 0.00 0.00 0.00 0.00 0.00 0.00 0.00 0.00 0.00 0.00 0.00 0.00 0.00 0.00 0.00 0.00 0.00 0.00 0.00 0.00 0.00 0.00 0.00 0.00 0.00 0.00 0.00 0.00 0.00 0.00 0.00 0.00 0.00 0.00 0.00 0.00 0.00 0.00 0.00 0.00 0.00 0.00 0.00 0.01 0.00 0.02 0.02 0.03 0.09 0.07 0.09 0.14 0.08 0.14
0.05 0.04 0.04 0.04 0.02 0.03 0.03 0.03 0.03 0.03 0.02 0.02 0.02 0.02 0.03 0.02 0.03 0.02 0.02 0.01 0.02 0.02 0.01 0.03 0.01 0.01 0.01 0.00 0.00 0.00 0.00 0.00 0.00 0.00 0.00 0.00 0.00 0.00 0.00 0.00 0.00 0.00 0.00 0.00 0.00 0.00 0.00 0.00 0.00 0.00 0.00 0.00 0.00 0.00 0.00 0.00 0.00 0.00 0.00 0.00 0.00 0.00 0.00 0.00 0.00 0.00 0.00 0.00 0.00 0.00 0.00 0.00 0.00 0.01 0.00 0.01 0.00 0.00 0.01 0.06 0.04 0.14 0.19 0.10 0.14 0.10 0.13 0.17
0.04 0.04 0.03 0.02 0.03 0.04 0.04 0.03 0.04 0.03 0.02 0.02 0.02 0.03 0.02 0.02 0.03 0.02 0.02 0.03 0.02 0.01 0.01 0.01 0.01 0.00 0.00 0.00 0.00 0.00 0.00 0.00 0.00 0.00 0.00 0.00 0.00 0.00 0.00 0.00 0.00 0.00 0.00 0.00 0.00 0.00 0.00 0.00 0.00 0.00 0.00 0.00 0.00 0.00 0.00 0.00 0.00 0.00 0.00 0.00 0.00 0.00 0.00 0.00 0.00 0.00 0.00 0.00 0.00 0.00 0.00 0.00 0.00 0.00 0.00 0.03 0.01 0.00 0.01 0.07 0.07 0.12 0.26 0.12 0.14 0.15 0.13 0.31
0.04 0.03 0.03 0.03 0.03 0.03 0.03 0.03 0.02 0.02 0.02 0.03 0.02 0.03 0.03 0.02 0.01 0.02 0.03 0.02 0.01 0.01 0.01 0.00 0.00 0.00 0.00 0.00 0.00 0.00 0.00 0.00 0.00 0.00 0.00 0.00 0.00 0.00 0.00 0.00 0.00 0.00 0.00 0.00 0.00 0.00 0.00 0.00 0.00 0.00 0.00 0.00 0.00 0.00 0.00 0.00 0.00 0.00 0.00 0.00 0.00 0.00 0.00 0.00 0.00 0.00 0.00 0.00 0.00 0.00 0.00 0.00 0.00 0.00 0.00 0.00 0.02 0.01 0.10 0.00 0.03 0.11 0.21 0.16 0.15 0.16 0.17 0.27
0.04 0.03 0.04 0.02 0.02 0.02 0.03 0.02 0.02 0.02 0.03 0.02 0.03 0.02 0.04 0.03 0.02 0.02 0.02 0.01 0.01 0.01 0.01 0.00 0.00 0.00 0.00 0.00 0.00 0.00 0.00 0.00 0.00 0.00 0.00 0.00 0.00 0.00 0.00 0.00 0.00 0.00 0.00 0.00 0.00 0.00 0.00 0.00 0.00 0.00 0.00 0.00 0.00 0.00 0.00 0.00 0.00 0.00 0.00 0.00 0.00 0.00 0.00 0.00 0.00 0.00 0.00 0.00 0.00 0.00 0.00 0.00 0.00 0.00 0.00 0.01 0.02 0.23 0.04 0.01 0.02 0.42 0.80 0.16 0.27 0.12 0.24 0.31
0.03 0.03 0.03 0.02 0.02 0.03 0.03 0.02 0.02 0.03 0.03 0.03 0.03 0.02 0.03 0.03 0.02 0.02 0.02 0.01 0.01 0.00 0.00 0.00 0.00 0.00 0.00 0.00 0.00 0.00 0.00 0.00 0.00 0.00 0.00 0.00 0.00 0.00 0.00 0.00 0.00 0.00 0.00 0.00 0.00 0.00 0.00 0.00 0.00 0.00 0.00 0.00 0.00 0.00 0.00 0.00 0.00 0.00 0.00 0.00 0.00 0.00 0.00 0.00 0.00 0.00 0.00 0.00 0.00 0.00 0.00 0.00 0.00 0.00 0.00 0.00 0.02 0.03 0.00 0.00 0.00 0.07 0.40 0.22 0.21 0.13 0.21 0.56
0.02 0.03 0.03 0.02 0.02 0.03 0.03 0.03 0.04 0.03 0.03 0.03 0.03 0.03 0.02 0.03 0.02 0.02 0.02 0.01 0.01 0.01 0.00 0.00 0.00 0.00 0.00 0.00 0.00 0.00 0.00 0.00 0.00 0.00 0.00 0.00 0.00 0.00 0.00 0.00 0.00 0.00 0.00 0.00 0.00 0.00 0.00 0.00 0.00 0.00 0.00 0.00 0.00 0.00 0.00 0.00 0.00 0.00 0.00 0.00 0.00 0.00 0.00 0.00 0.00 0.00 0.00 0.00 0.00 0.00 0.00 0.00 0.00 0.00 0.00 0.00 0.00 0.00 0.01 0.01 0.04 0.14 0.30 0.17 0.14 0.35 0.23 0.22
0.03 0.02 0.02 0.02 0.02 0.02 0.03 0.03 0.02 0.02 0.02 0.04 0.03 0.02 0.02 0.02 0.03 0.02 0.01 0.01 0.01 0.00 0.00 0.00 0.00 0.00 0.00 0.00 0.00 0.00 0.00 0.00 0.00 0.00 0.00 0.00 0.00 0.00 0.00 0.00 0.00 0.00 0.00 0.00 0.00 0.00 0.00 0.00 0.00 0.00 0.00 0.00 0.00 0.00 0.00 0.00 0.00 0.00 0.00 0.00 0.00 0.00 0.00 0.00 0.00 0.00 0.00 0.00 0.00 0.00 0.00 0.00 0.00 0.00 0.00 0.00 0.00 0.00 0.01 0.01 0.04 0.11 0.24 0.09 0.07 0.21 0.19 0.17
0.02 0.01 0.01 0.01 0.02 0.02 0.03 0.02 0.02 0.02 0.02 0.02 0.02 0.02 0.02 0.03 0.03 0.01 0.01 0.01 0.01 0.01 0.00 0.00 0.00 0.00 0.00 0.00 0.00 0.00 0.00 0.00 0.00 0.00 0.00 0.00 0.00 0.00 0.00 0.00 0.00 0.00 0.00 0.00 0.00 0.00 0.00 0.00 0.00 0.00 0.00 0.00 0.00 0.00 0.00 0.00 0.00 0.00 0.00 0.00 0.00 0.00 0.00 0.00 0.00 0.00 0.00 0.00 0.00 0.00 0.00 0.00 0.00 0.00 0.00 0.00 0.00 0.00 0.00 0.01 0.03 0.17 0.12 0.13 0.13 0.11 0.32 0.29
0.01 0.01 0.01 0.02 0.02 0.02 0.02 0.02 0.03 0.03 0.02 0.03 0.03 0.03 0.03 0.02 0.01 0.02 0.01 0.01 0.00 0.00 0.00 0.00 0.00 0.00 0.00 0.00 0.00 0.00 0.00 0.00 0.00 0.00 0.00 0.00 0.00 0.00 0.00 0.00 0.00 0.00 0.00 0.00 0.00 0.00 0.00 0.00 0.00 0.00 0.00 0.00 0.00 0.00 0.00 0.00 0.00 0.00 0.00 0.00 0.00 0.00 0.00 0.00 0.00 0.00 0.00 0.00 0.00 0.00 0.00 0.00 0.00 0.00 0.00 0.00 0.00 0.01 0.00 0.03 0.12 0.17 0.13 0.05 0.21 0.22 0.37 0.29
0.01 0.01 0.01 0.01 0.02 0.01 0.02 0.02 0.02 0.02 0.02 0.01 0.02 0.02 0.01 0.01 0.02 0.01 0.01 0.00 0.00 0.00 0.00 0.00 0.01 0.00 0.00 0.00 0.00 0.00 0.00 0.00 0.00 0.00 0.00 0.00 0.00 0.00 0.00 0.00 0.00 0.00 0.00 0.00 0.00 0.00 0.00 0.00 0.00 0.00 0.00 0.00 0.00 0.00 0.00 0.00 0.00 0.00 0.00 0.00 0.00 0.00 0.00 0.00 0.00 0.00 0.00 0.00 0.00 0.00 0.00 0.00 0.00 0.00 0.00 0.00 0.01 0.00 0.00 0.03 0.04 0.07 0.15 0.16 0.23 0.28 0.25 0.34
0.01 0.01 0.01 0.01 0.02 0.02 0.02 0.02 0.02 0.01 0.01 0.01 0.01 0.01 0.01 0.01 0.01 0.01 0.01 0.01 0.01 0.00 0.00 0.00 0.01 0.03 0.01 0.00 0.00 0.00 0.00 0.00 0.00 0.00 0.00 0.00 0.00 0.00 0.00 0.00 0.00 0.00 0.00 0.00 0.00 0.00 0.00 0.00 0.00 0.00 0.00 0.00 0.00 0.00 0.00 0.00 0.00 0.00 0.00 0.00 0.00 0.00 0.00 0.00 0.00 0.00 0.00 0.00 0.00 0.00 0.00 0.00 0.00 0.00 0.00 0.00 0.00 0.00 0.00 0.03 0.04 0.07 0.08 0.12 0.11 0.16 0.14 0.41
0.01 0.01 0.01 0.01 0.01 0.02 0.01 0.01 0.01 0.01 0.01 0.01 0.01 0.01 0.01 0.01 0.01 0.01 0.01 0.00 0.00 0.00 0.00 0.00 0.00 0.00 0.01 0.00 0.00 0.00 0.00 0.00 0.00 0.00 0.00 0.00 0.00 0.00 0.00 0.00 0.00 0.00 0.00 0.00 0.00 0.00 0.00 0.00 0.00 0.00 0.00 0.00 0.00 0.00 0.00 0.00 0.00 0.00 0.00 0.00 0.00 0.00 0.00 0.00 0.00 0.00 0.00 0.00 0.00 0.00 0.00 0.00 0.00 0.00 0.00 0.01 0.00 0.01 0.01 0.02 0.02 0.06 0.07 0.08 0.12 0.16 0.23 0.29
0.01 0.01 0.02 0.01 0.01 0.01 0.02 0.01 0.01 0.01 0.01 0.01 0.01 0.01 0.01 0.00 0.00 0.00 0.00 0.01 0.00 0.01 0.01 0.00 0.01 0.03 0.02 0.00 0.00 0.00 0.00 0.00 0.00 0.00 0.00 0.00 0.00 0.00 0.00 0.00 0.00 0.00 0.00 0.00 0.00 0.00 0.00 0.00 0.00 0.00 0.00 0.00 0.00 0.00 0.00 0.00 0.00 0.00 0.00 0.00 0.00 0.00 0.00 0.00 0.00 0.00 0.00 0.00 0.00 0.00 0.00 0.00 0.00 0.00 0.00 0.01 0.00 0.00 0.01 0.03 0.10 0.21 0.14 0.07 0.10 0.12 0.16 0.26
0.01 0.01 0.01 0.01 0.01 0.01 0.02 0.01 0.01 0.01 0.01 0.01 0.01 0.00 0.00 0.00 0.00 0.00 0.00 0.00 0.01 0.00 0.00 0.03 0.02 0.01 0.01 0.00 0.00 0.00 0.00 0.00 0.00 0.00 0.00 0.00 0.00 0.00 0.00 0.00 0.00 0.00 0.00 0.00 0.00 0.00 0.00 0.00 0.00 0.00 0.00 0.00 0.00 0.00 0.00 0.00 0.00 0.00 0.00 0.00 0.00 0.00 0.00 0.00 0.00 0.00 0.00 0.00 0.00 0.00 0.00 0.00 0.00 0.00 0.00 0.01 0.01 0.00 0.00 0.10 0.14 0.41 0.47 0.31 0.21 0.21 0.38 0.61
0.01 0.01 0.01 0.01 0.01 0.02 0.00 0.01 0.01 0.01 0.00 0.00 0.00 0.00 0.00 0.01 0.00 0.00 0.01 0.00 0.00 0.01 0.00 0.00 0.01 0.01 0.00 0.00 0.00 0.00 0.00 0.00 0.00 0.00 0.00 0.00 0.00 0.00 0.00 0.00 0.00 0.00 0.00 0.00 0.00 0.00 0.00 0.00 0.00 0.00 0.00 0.00 0.00 0.00 0.00 0.00 0.00 0.00 0.00 0.00 0.00 0.00 0.00 0.00 0.00 0.00 0.00 0.00 0.00 0.00 0.00 0.00 0.00 0.00 0.00 0.01 0.01 0.01 0.00 0.05 0.18 0.15 0.12 0.26 0.29 0.43 0.37 0.36
0.01 0.01 0.02 0.01 0.01 0.01 0.01 0.00 0.01 0.00 0.00 0.00 0.00 0.00 0.00 0.00 0.00 0.00 0.00 0.01 0.01 0.02 0.04 0.00 0.00 0.01 0.00 0.00 0.00 0.00 0.00 0.00 0.00 0.00 0.00 0.00 0.00 0.00 0.00 0.00 0.00 0.00 0.00 0.00 0.00 0.00 0.00 0.00 0.00 0.00 0.00 0.00 0.00 0.00 0.00 0.00 0.00 0.00 0.00 0.00 0.01 0.00 0.00 0.00 0.00 0.00 0.00 0.00 0.00 0.00 0.00 0.00 0.00 0.00 0.00 0.02 0.01 0.01 0.01 0.05 0.06 0.07 0.09 0.10 0.10 0.10 0.32 0.46
0.02 0.02 0.01 0.01 0.01 0.01 0.00 0.00 0.01 0.00 0.00 0.00 0.01 0.00 0.01 0.00 0.00 0.00 0.01 0.01 0.00 0.00 0.01 0.00 0.00 0.01 0.00 0.00 0.00 0.00 0.00 0.00 0.00 0.00 0.00 0.00 0.00 0.00 0.00 0.00 0.00 0.00 0.00 0.00 0.00 0.00 0.00 0.00 0.00 0.00 0.00 0.00 0.00 0.00 0.00 0.00 0.00 0.00 0.00 0.00 0.00 0.00 0.00 0.00 0.00 0.00 0.00 0.00 0.00 0.00 0.00 0.00 0.00 0.00 0.00 0.00 0.01 0.02 0.01 0.03 0.04 0.09 0.10 0.17 0.10 0.08 0.13 0.17
0.02 0.02 0.01 0.01 0.00 0.00 0.01 0.01 0.00 0.00 0.00 0.00 0.00 0.00 0.00 0.00 0.00 0.00 0.00 0.01 0.01 0.01 0.00 0.01 0.01 0.00 0.01 0.00 0.00 0.00 0.00 0.00 0.00 0.00 0.00 0.00 0.00 0.00 0.00 0.00 0.00 0.00 0.00 0.00 0.00 0.00 0.00 0.00 0.00 0.00 0.00 0.00 0.00 0.00 0.00 0.00 0.00 0.00 0.00 0.00 0.00 0.01 0.00 0.00 0.00 0.00 0.00 0.00 0.00 0.00 0.00 0.00 0.00 0.00 0.00 0.01 0.02 0.01 0.01 0.02 0.05 0.09 0.08 0.07 0.09 0.06 0.16 0.16
0.02 0.01 0.01 0.01 0.01 0.00 0.00 0.00 0.00 0.00 0.01 0.01 0.00 0.00 0.01 0.01 0.02 0.00 0.00 0.02 0.00 0.00 0.00 0.00 0.00 0.00 0.00 0.00 0.00 0.00 0.00 0.00 0.00 0.00 0.00 0.00 0.00 0.00 0.00 0.00 0.00 0.00 0.00 0.00 0.00 0.00 0.00 0.00 0.00 0.00 0.00 0.00 0.00 0.00 0.00 0.00 0.00 0.00 0.00 0.00 0.00 0.00 0.00 0.00 0.00 0.00 0.00 0.00 0.00 0.00 0.00 0.00 0.00 0.00 0.00 0.00 0.01 0.02 0.02 0.02 0.03 0.13 0.05 0.04 0.09 0.13 0.09 0.10
0.01 0.01 0.01 0.00 0.01 0.01 0.00 0.00 0.00 0.00 0.01 0.04 0.01 0.00 0.00 0.00 0.00 0.02 0.00 0.00 0.00 0.00 0.00 0.00 0.00 0.00 0.00 0.00 0.00 0.00 0.00 0.00 0.00 0.00 0.00 0.00 0.00 0.00 0.00 0.00 0.00 0.00 0.00 0.00 0.00 0.00 0.00 0.00 0.00 0.00 0.00 0.00 0.00 0.00 0.00 0.00 0.00 0.00 0.00 0.00 0.00 0.00 0.00 0.00 0.00 0.00 0.00 0.00 0.00 0.00 0.00 0.00 0.00 0.00 0.00 0.00 0.01 0.02 0.01 0.01 0.02 0.03 0.04 0.08 0.13 0.12 0.10 0.15
0.01 0.01 0.01 0.01 0.00 0.00 0.00 0.00 0.00 0.00 0.01 0.01 0.01 0.00 0.00 0.00 0.00 0.00 0.00 0.00 0.00 0.00 0.00 0.00 0.00 0.00 0.00 0.00 0.00 0.00 0.00 0.00 0.00 0.00 0.00 0.00 0.00 0.00 0.00 0.00 0.00 0.00 0.00 0.00 0.00 0.00 0.00 0.00 0.00 0.00 0.00 0.00 0.00 0.00 0.00 0.00 0.00 0.00 0.00 0.00 0.00 0.01 0.00 0.00 0.00 0.00 0.00 0.00 0.00 0.00 0.00 0.00 0.00 0.00 0.00 0.00 0.01 0.01 0.01 0.01 0.01 0.01 0.01 0.02 0.12 0.60 0.41 0.32
0.02 0.01 0.01 0.00 0.00 0.00 0.00 0.01 0.00 0.00 0.01 0.00 0.00 0.00 0.00 0.00 0.00 0.00 0.00 0.00 0.00 0.00 0.00 0.00 0.00 0.00 0.00 0.00 0.00 0.00 0.00 0.00 0.00 0.00 0.00 0.00 0.00 0.00 0.00 0.00 0.00 0.00 0.00 0.00 0.00 0.00 0.00 0.00 0.00 0.00 0.00 0.00 0.00 0.00 0.00 0.00 0.00 0.00 0.00 0.00 0.00 0.00 0.00 0.03 0.00 0.00 0.00 0.00 0.00 0.00 0.01 0.01 0.00 0.00 0.00 0.00 0.01 0.01 0.01 0.01 0.01 0.01 0.01 0.01 0.03 0.09 0.12 0.13
0.01 0.01 0.00 0.01 0.01 0.01 0.00 0.00 0.01 0.01 0.00 0.00 0.00 0.00 0.00 0.00 0.00 0.00 0.00 0.00 0.00 0.00 0.00 0.00 0.00 0.00 0.00 0.00 0.00 0.00 0.00 0.00 0.00 0.00 0.00 0.00 0.00 0.00 0.00 0.00 0.00 0.00 0.00 0.00 0.00 0.00 0.00 0.00 0.00 0.00 0.00 0.00 0.00 0.00 0.00 0.00 0.00 0.00 0.00 0.00 0.00 0.00 0.00 0.00 0.06 0.00 0.00 0.00 0.00 0.00 0.00 0.00 0.00 0.00 0.00 0.00 0.00 0.01 0.00 0.01 0.01 0.01 0.02 0.03 0.06 0.11 0.05 0.17
0.01 0.01 0.01 0.00 0.01 0.01 0.00 0.00 0.00 0.00 0.01 0.00 0.00 0.00 0.00 0.00 0.00 0.00 0.00 0.00 0.00 0.00 0.00 0.00 0.00 0.00 0.00 0.00 0.00 0.00 0.00 0.00 0.00 0.00 0.00 0.00 0.00 0.00 0.00 0.00 0.00 0.00 0.00 0.00 0.00 0.00 0.00 0.00 0.00 0.00 0.00 0.00 0.00 0.00 0.00 0.00 0.00 0.00 0.00 0.00 0.00 0.00 0.00 0.00 0.00 0.00 0.00 0.02 0.00 0.00 0.02 0.02 0.01 0.00 0.00 0.00 0.00 0.00 0.00 0.01 0.01 0.01 0.02 0.02 0.05 0.11 0.10 0.18
0.02 0.01 0.01 0.02 0.01 0.00 0.00 0.00 0.01 0.00 0.00 0.00 0.00 0.00 0.00 0.00 0.00 0.00 0.00 0.01 0.02 0.04 0.00 0.00 0.00 0.00 0.00 0.00 0.00 0.00 0.00 0.00 0.00 0.00 0.00 0.00 0.00 0.00 0.00 0.00 0.00 0.00 0.00 0.00 0.00 0.00 0.00 0.00 0.00 0.00 0.00 0.00 0.00 0.00 0.00 0.00 0.00 0.00 0.03 0.00 0.00 0.00 0.00 0.00 0.00 0.00 0.00 0.02 0.04 0.00 0.01 0.03 0.01 0.00 0.00 0.00 0.00 0.00 0.00 0.00 0.01 0.03 0.03 0.04 0.09 0.09 0.08 0.16
0.01 0.01 0.01 0.01 0.00 0.02 0.00 0.00 0.00 0.00 0.00 0.00 0.00 0.00 0.00 0.00 0.00 0.00 0.01 0.02 0.08 0.04 0.00 0.00 0.00 0.00 0.00 0.00 0.00 0.00 0.00 0.00 0.00 0.00 0.00 0.00 0.00 0.00 0.00 0.00 0.00 0.00 0.00 0.00 0.00 0.00 0.00 0.00 0.00 0.00 0.00 0.00 0.00 0.00 0.00 0.00 0.00 0.02 0.01 0.00 0.00 0.01 0.00 0.00 0.00 0.00 0.01 0.00 0.01 0.00 0.00 0.03 0.05 0.06 0.00 0.00 0.00 0.00 0.01 0.01 0.03 0.04 0.07 0.05 0.11 0.12 0.11 0.12
0.01 0.01 0.01 0.01 0.00 0.03 0.05 0.03 0.00 0.00 0.00 0.00 0.00 0.00 0.00 0.00 0.00 0.00 0.03 0.04 0.01 0.00 0.02 0.00 0.00 0.00 0.00 0.00 0.00 0.00 0.00 0.00 0.00 0.00 0.00 0.00 0.00 0.00 0.00 0.00 0.00 0.00 0.00 0.00 0.01 0.00 0.00 0.00 0.00 0.00 0.00 0.00 0.00 0.00 0.00 0.00 0.00 0.01 0.00 0.00 0.00 0.00 0.02 0.00 0.00 0.01 0.05 0.01 0.03 0.00 0.00 0.01 0.04 0.03 0.00 0.00 0.00 0.00 0.03 0.03 0.05 0.06 0.07 0.21 0.20 0.15 0.09 0.09
0.01 0.01 0.01 0.01 0.00 0.01 0.02 0.02 0.01 0.00 0.00 0.00 0.00 0.00 0.00 0.00 0.01 0.01 0.28 0.12 0.43 0.00 0.00 0.01 0.00 0.00 0.00 0.00 0.00 0.00 0.00 0.00 0.00 0.00 0.00 0.00 0.00 0.00 0.00 0.00 0.00 0.00 0.00 0.00 0.00 0.01 0.00 0.00 0.00 0.00 0.00 0.00 0.00 0.00 0.00 0.00 0.01 0.00 0.00 0.00 0.00 0.00 0.00 0.00 0.02 0.00 0.08 0.00 0.02 0.04 0.09 0.02 0.08 0.02 0.03 0.01 0.01 0.05 0.09 0.07 0.09 0.11 0.12 0.16 0.10 0.11 0.10 0.13
0.00 0.00 0.01 0.01 0.01 0.02 0.01 0.04 0.01 0.00 0.00 0.00 0.00 0.00 0.00 0.00 0.01 0.09 0.06 0.02 0.23 0.12 0.00 0.01 0.00 0.00 0.00 0.00 0.00 0.00 0.00 0.00 0.00 0.00 0.00 0.00 0.00 0.00 0.00 0.00 0.00 0.00 0.00 0.00 0.00 0.00 0.00 0.00 0.00 0.00 0.00 0.00 0.00 0.00 0.00 0.00 0.00 0.00 0.00 0.00 0.00 0.00 0.03 0.01 0.00 0.05 0.05 0.02 0.03 0.03 0.02 0.01 0.07 0.07 0.06 0.05 0.08 0.05 0.06 0.06 0.11 0.07 0.08 0.13 0.11 0.11 0.13 0.19
0.01 0.01 0.02 0.03 0.06 0.00 0.01 0.00 0.00 0.00 0.00 0.00 0.00 0.00 0.01 0.01 0.11 0.16 0.02 0.04 0.02 0.05 0.00 0.00 0.00 0.00 0.00 0.00 0.01 0.00 0.00 0.00 0.00 0.00 0.00 0.00 0.00 0.00 0.00 0.00 0.00 0.00 0.00 0.00 0.00 0.00 0.00 0.00 0.00 0.00 0.00 0.00 0.00 0.00 0.00 0.00 0.00 0.00 0.00 0.02 0.00 0.02 0.00 0.01 0.05 0.04 0.09 0.01 0.03 0.02 0.01 0.02 0.08 0.15 0.10 0.11 0.04 0.03 0.05 0.12 0.11 0.14 0.15 0.11 0.15 0.16 0.12 0.19
0.02 0.02 0.01 0.10 0.02 0.03 0.03 0.00 0.00 0.00 0.00 0.00 0.00 0.00 0.05 0.14 0.02 0.13 0.02 0.00 0.19 0.08 0.02 0.01 0.00 0.00 0.00 0.00 0.00 0.00 0.00 0.00 0.00 0.00 0.00 0.00 0.00 0.00 0.00 0.00 0.00 0.00 0.01 0.01 0.04 0.00 0.00 0.00 0.00 0.00 0.00 0.00 0.00 0.00 0.00 0.00 0.00 0.00 0.00 0.02 0.21 0.19 0.02 0.09 0.05 0.03 0.00 0.03 0.08 0.00 0.01 0.02 0.01 0.15 0.39 0.18 0.06 0.04 0.07 0.11 0.10 0.09 0.10 0.09 0.12 0.16 0.17 0.14
0.01 0.02 0.04 0.03 0.02 0.02 0.01 0.00 0.00 0.00 0.00 0.00 0.00 0.00 0.15 0.07 0.02 0.04 0.07 0.00 0.27 0.04 0.02 0.00 0.02 0.00 0.02 0.00 0.00 0.00 0.00 0.01 0.02 0.00 0.00 0.00 0.00 0.00 0.00 0.00 0.00 0.00 0.05 0.06 0.02 0.00 0.00 0.00 0.00 0.00 0.00 0.00 0.00 0.00 0.02 0.01 0.00 0.00 0.03 0.08 0.08 0.17 0.07 0.02 0.07 0.02 0.06 0.02 0.01 0.05 0.02 0.05 0.18 0.13 0.13 0.31 0.13 0.09 0.09 0.07 0.08 0.09 0.10 0.08 0.11 0.12 0.17 0.21
0.01 0.04 0.04 0.01 0.01 0.00 0.00 0.00 0.00 0.00 0.00 0.00 0.00 0.02 0.10 0.01 0.03 0.02 0.03 0.12 0.27 0.05 0.01 0.02 0.01 0.00 0.00 0.04 0.01 0.01 0.02 0.00 0.00 0.00 0.00 0.02 0.01 0.02 0.00 0.00 0.00 0.00 0.00 0.01 0.00 0.02 0.06 0.10 0.00 0.00 0.01 0.00 0.00 0.00 0.01 0.02 0.01 0.01 0.00 0.00 0.08 0.11 0.07 0.02 0.05 0.05 0.03 0.18 0.07 0.04 0.01 0.05 0.02 0.31 0.17 0.37 0.16 0.12 0.06 0.08 0.08 0.11 0.13 0.16 0.14 0.16 0.52 0.91
0.00 0.00 0.01 0.00 0.01 0.00 0.00 0.00 0.00 0.00 0.00 0.00 0.00 0.02 0.01 0.01 0.01 0.04 0.04 0.03 0.12 0.13 0.03 0.00 0.00 0.01 0.04 0.00 0.01 0.01 0.00 0.08 0.00 0.00 0.00 0.00 0.04 0.01 0.01 0.00 0.00 0.00 0.00 0.02 0.03 0.01 0.00 0.02 0.01 0.00 0.00 0.00 0.00 0.00 0.00 0.00 0.01 0.01 0.00 0.00 0.03 0.02 0.00 0.10 0.24 0.03 0.14 0.05 0.05 0.04 0.02 0.19 0.40 0.44 0.45 0.24 0.17 0.04 0.05 0.07 0.18 0.11 0.13 0.19 0.15 0.32 0.27 0.24
0.00 0.00 0.00 0.00 0.00 0.00 0.00 0.00 0.00 0.01 0.00 0.00 0.06 0.02 0.01 0.01 0.03 0.03 0.05 0.00 0.37 0.22 0.01 0.00 0.00 0.02 0.01 0.02 0.00 0.05 0.02 0.07 0.02 0.02 0.03 0.00 0.01 0.03 0.00 0.00 0.00 0.00 0.04 0.00 0.12 0.03 0.01 0.11 0.00 0.01 0.00 0.00 0.00 0.00 0.00 0.00 0.13 0.18 0.00 0.05 0.02 0.01 0.02 0.04 0.00 0.00 0.00 0.00 0.03 0.00 0.05 0.11 0.07 0.23 0.12 0.49 0.21 0.13 0.11 0.12 0.11 0.22 0.14 0.26 0.31 0.30 0.49 0.89
0.01 0.00 0.01 0.00 0.00 0.00 0.00 0.00 0.00 0.00 0.00 0.02 0.05 0.03 0.00 0.00 0.05 0.04 0.08 0.10 0.24 0.17 0.02 0.06 0.03 0.01 0.07 0.03 0.04 0.01 0.10 0.01 0.14 0.01 0.14 0.00 0.03 0.00 0.00 0.00 0.00 0.00 0.00 0.00 0.05 0.00 0.06 0.21 0.01 0.02 0.00 0.00 0.00 0.00 0.00 0.00 0.00 0.00 0.02 0.03 0.00 0.00 0.02 0.02 0.12 0.03 0.00 0.02 0.03 0.02 0.06 0.33 0.03 0.43 0.23 0.27 0.19 0.17 0.21 0.23 0.13 0.35 0.54 0.56 0.52 0.55 0.75 1.19
0.04 0.03 0.05 0.02 0.01 0.00 0.00 0.00 0.00 0.00 0.00 0.01 0.02 0.01 0.00 0.00 0.01 0.03 0.05 0.10 0.12 0.12 0.02 0.01 0.03 0.00 0.02 0.05 0.02 0.02 0.05 0.06 0.29 0.03 0.15 0.02 0.20 0.00 0.01 0.01 0.00 0.00 0.00 0.00 0.01 0.06 0.00 0.07 0.02 0.00 0.00 0.00 0.00 0.00 0.00 0.00 0.00 0.00 0.07 0.00 0.02 0.06 0.05 0.03 0.00 0.03 0.02 0.01 0.08 0.03 0.09 0.07 0.14 0.38 0.10 0.43 0.21 0.25 0.23 0.24 0.26 0.19 0.26 0.40 0.75 0.88 0.98 1.75
0.04 0.09 0.12 0.02 0.00 0.00 0.00 0.00 0.00 0.00 0.01 0.01 0.01 0.01 0.00 0.00 0.01 0.02 0.04 0.07 0.04 0.15 0.02 0.00 0.05 0.01 0.00 0.03 0.03 0.04 0.06 0.13 0.06 0.14 0.14 0.21 0.19 0.03 0.11 0.01 0.04 0.00 0.00 0.00 0.00 0.01 0.00 0.01 0.07 0.00 0.00 0.02 0.00 0.00 0.02 0.00 0.00 0.00 0.00 0.00 0.00 0.00 0.05 0.08 0.02 0.09 0.01 0.18 0.02 0.11 0.07 0.24 0.15 0.38 0.20 0.31 0.22 0.29 0.24 0.30 0.31 0.35 0.34 0.53 1.20 0.87 0.82 1.21
0.05 0.08 0.36 0.01 0.00 0.00 0.00 0.00 0.00 0.00 0.01 0.01 0.01 0.00 0.00 0.00 0.01 0.02 0.06 0.06 0.09 0.08 0.03 0.00 0.00 0.03 0.00 0.01 0.00 0.08 0.13 0.09 0.09 0.22 0.09 0.40 0.06 0.05 0.08 0.00 0.08 0.00 0.00 0.00 0.00 0.00 0.03 0.00 0.09 0.05 0.00 0.00 0.04 0.00 0.01 0.01 0.04 0.00 0.00 0.00 0.01 0.01 0.03 0.01 0.10 0.02 0.16 0.13 0.08 0.10 0.12 0.46 0.36 0.10 0.12 0.23 0.29 0.35 0.53 0.63 0.73 0.66 0.76 0.87 1.05 1.40 1.28 1.40
0.06 0.31 0.45 0.02 0.01 0.01 0.00 0.01 0.00 0.00 0.00 0.00 0.00 0.00 0.00 0.00 0.00 0.04 0.05 0.02 0.02 0.02 0.02 0.00 0.00 0.00 0.00 0.01 0.01 0.00 0.01 0.04 0.14 0.27 0.06 0.10 0.02 0.23 0.00 0.05 0.00 0.07 0.00 0.01 0.00 0.04 0.00 0.00 0.02 0.01 0.03 0.01 0.01 0.00 0.01 0.00 0.00 0.00 0.01 0.05 0.05 0.09 0.12 0.10 0.10 0.00 0.08 0.04 0.11 0.10 0.18 0.37 0.21 0.09 0.22 0.35 0.49 0.50 0.56 0.59 0.78 0.97 1.10 0.96 1.44 1.33 1.42 1.56
0.19 0.37 0.55 0.01 0.01 0.00 0.01 0.15 0.02 0.02 0.01 0.01 0.02 0.00 0.00 0.00 0.00 0.06 0.04 0.03 0.03 0.08 0.01 0.00 0.00 0.00 0.00 0.00 0.01 0.01 0.00 0.02 0.07 0.07 0.06 0.27 0.36 0.18 0.17 0.00 0.01 0.03 0.07 0.03 0.01 0.03 0.02 0.01 0.04 0.01 0.11 0.07 0.02 0.02 0.00 0.00 0.00 0.00 0.00 0.02 0.00 0.04 0.01 0.13 0.19 0.27 0.09 0.07 0.04 0.19 0.10 0.44 0.22 0.24 0.37 0.42 0.54 0.48 0.66 1.02 0.75 0.52 0.69 0.87 0.74 0.84 0.93 0.71
0.16 0.53 0.65 0.08 0.00 0.01 0.04 0.14 0.13 0.09 0.10 0.06 0.01 0.00 0.00 0.01 0.02 0.05 0.03 0.02 0.05 0.03 0.01 0.00 0.00 0.00 0.00 0.00 0.01 0.00 0.00 0.05 0.02 0.18 0.18 0.18 0.38 0.15 0.03 0.01 0.01 0.00 0.00 0.08 0.00 0.02 0.00 0.00 0.01 0.03 0.15 0.03 0.00 0.00 0.00 0.00 0.00 0.00 0.00 0.00 0.00 0.06 0.09 0.09 0.13 0.20 0.12 0.11 0.05 0.14 0.06 0.53 0.24 0.37 0.57 0.53 0.44 0.48 0.46 0.58 0.58 0.70 0.66 0.43 0.66 0.43 1.09 1.06
0.30 1.18 0.29 0.04 0.00 0.03 0.26 0.17 0.10 0.04 0.10 0.04 0.05 0.03 0.00 0.01 0.02 0.04 0.02 0.02 0.04 0.03 0.01 0.00 0.00 0.00 0.00 0.00 0.00 0.00 0.03 0.01 0.01 0.04 0.09 0.07 0.22 0.04 0.01 0.01 0.01 0.04 0.08 0.39 0.05 0.07 0.07 0.02 0.01 0.10 0.06 0.17 0.14 0.04 0.01 0.00 0.00 0.01 0.02 0.01 0.00 0.01 0.04 0.10 0.08 0.11 0.01 0.04 0.19 0.12 0.17 0.34 0.35 0.44 0.33 0.39 0.41 0.41 0.65 0.51 0.43 0.67 0.60 0.42 0.31 0.45 0.48 0.58
0.48 0.86 0.38 0.40 0.02 0.04 0.34 0.48 0.07 0.05 0.14 0.09 0.14 0.06 0.12 0.01 0.01 0.04 0.04 0.06 0.03 0.02 0.01 0.00 0.00 0.03 0.00 0.00 0.00 0.00 0.00 0.01 0.07 0.06 0.02 0.22 0.26 0.00 0.01 0.02 0.01 0.13 0.10 0.02 0.02 0.02 0.05 0.07 0.01 0.07 0.23 0.20 0.22 0.22 0.21 0.12 0.05 0.02 0.02 0.01 0.05 0.02 0.08 0.14 0.05 0.06 0.05 0.06 0.12 0.10 0.46 0.31 0.47 0.50 0.34 0.29 0.29 0.33 0.37 0.39 0.50 1.03 1.07 0.63 0.61 0.89 0.65 0.75
0.73 0.56 0.17 0.61 0.98 0.60 0.13 0.18 0.06 0.10 0.09 0.13 0.03 0.06 0.01 0.10 0.02 0.02 0.02 0.04 0.01 0.01 0.12 0.00 0.00 0.00 0.00 0.00 0.00 0.00 0.01 0.01 0.03 0.02 0.03 0.21 0.15 0.07 0.03 0.01 0.04 0.03 0.04 0.02 0.07 0.10 0.25 0.05 0.09 0.03 0.27 0.46 0.27 0.24 0.14 0.04 0.03 0.06 0.07 0.05 0.06 0.00 0.03 0.06 0.11 0.15 0.12 0.14 0.11 0.08 0.10 0.31 0.32 0.36 0.27 0.35 0.27 0.46 0.44 0.34 0.29 0.32 0.36 0.40 0.50 0.53 0.61 0.51
0.48 0.47 0.09 0.14 0.15 0.44 0.41 0.19 0.14 0.11 0.11 0.09 0.09 0.03 0.06 0.04 0.12 0.06 0.02 0.12 0.01 0.01 0.10 0.04 0.00 0.00 0.02 0.00 0.01 0.01 0.00 0.01 0.00 0.01 0.03 0.22 0.22 0.25 0.02 0.16 0.05 0.00 0.01 0.03 0.07 0.20 0.57 0.33 0.13 0.04 0.16 0.10 0.03 0.14 0.03 0.04 0.12 0.11 0.13 0.06 0.02 0.05 0.04 0.07 0.03 0.13 0.25 0.16 0.25 0.20 0.14 0.12 0.25 0.24 0.23 0.31 0.36 0.44 0.47 0.23 0.22 0.37 0.53 0.54 0.43 0.38 0.46 0.49
0.48 0.47 0.12 0.23 0.24 0.35 0.32 0.67 0.30 0.36 0.21 0.10 0.36 0.06 0.07 0.16 0.11 0.18 0.08 0.00 0.01 0.00 0.13 0.07 0.01 0.00 0.00 0.00 0.01 0.02 0.03 0.02 0.03 0.01 0.02 0.06 0.04 0.31 0.51 0.20 0.26 0.05 0.05 0.08 0.03 0.03 0.21 0.23 0.36 0.27 0.21 0.21 0.11 0.02 0.09 0.05 0.09 0.13 0.11 0.18 0.16 0.11 0.07 0.12 0.10 0.10 0.17 0.11 0.33 0.38 0.47 0.13 0.21 0.25 0.31 0.17 0.14 0.16 0.20 0.26 0.24 0.45 0.37 0.43 0.42 0.57 0.53 0.39
0.90 0.42 0.36 0.07 0.08 0.20 0.20 0.31 0.25 0.26 0.53 0.30 0.20 0.04 0.12 0.08 0.17 0.16 0.12 0.31 0.02 0.07 0.02 0.05 0.01 0.01 0.02 0.01 0.03 0.02 0.07 0.07 0.01 0.04 0.14 0.11 0.15 0.29 0.49 0.38 0.20 0.12 0.04 0.18 0.06 0.10 0.08 0.29 0.39 0.33 0.32 0.47 0.22 0.15 0.11 0.19 0.17 0.09 0.03 0.15 0.19 0.20 0.20 0.08 0.06 0.11 0.16 0.10 0.07 0.09 0.08 0.19 0.33 0.38 0.22 0.27 0.20 0.13 0.22 0.15 0.22 0.43 0.46 0.38 0.54 0.29 0.19 0.22
0.69 0.75 0.82 0.04 0.18 0.06 0.18 0.51 0.49 0.39 0.33 0.14 0.19 0.12 0.17 0.19 0.15 0.19 0.06 0.16 0.11 0.15 0.04 0.26 0.05 0.01 0.01 0.03 0.01 0.05 0.15 0.07 0.12 0.09 0.06 0.04 0.28 0.18 0.32 0.53 0.75 0.12 0.07 0.18 0.11 0.21 0.29 0.56 0.06 0.31 0.33 0.31 0.43 0.25 0.19 0.36 0.13 0.15 0.02 0.02 0.03 0.12 0.05 0.05 0.07 0.05 0.07 0.10 0.13 0.02 0.00 0.09 0.24 0.16 0.18 0.31 0.19 0.14 0.14 0.16 0.15 0.18 0.26 0.47 0.30 0.43 0.44 0.24
0.53 0.50 0.31 0.16 0.20 0.09 0.09 0.27 0.28 0.42 0.55 0.41 0.25 0.29 0.18 0.12 0.09 0.19 0.38 0.06 0.09 0.17 0.09 0.22 0.09 0.05 0.03 0.05 0.02 0.04 0.01 0.02 0.01 0.02 0.45 0.07 0.14 0.25 0.11 0.39 0.03 0.33 0.20 0.38 0.19 0.51 0.13 0.84 0.33 0.71 0.31 0.50 0.40 0.47 0.35 0.47 0.29 0.31 0.21 0.09 0.03 0.18 0.17 0.06 0.17 0.23 0.21 0.28 0.28 0.24 0.03 0.05 0.23 0.16 0.16 0.12 0.14 0.14 0.12 0.13 0.13 0.42 0.25 0.22 0.29 0.17 0.26 0.45
0.36 0.59 0.23 0.14 0.07 0.00 0.06 0.01 0.10 0.19 0.34 0.50 0.59 0.32 0.17 0.17 0.07 0.11 0.32 0.00 0.02 0.04 0.09 0.12 0.08 0.05 0.31 0.13 0.08 0.03 0.01 0.00 0.01 0.02 0.00 0.05 0.08 0.46 0.03 0.25 0.22 0.41 0.34 0.09 0.27 0.33 0.44 0.16 0.27 0.30 0.31 0.42 0.64 0.48 0.35 0.32 0.40 0.52 0.37 0.18 0.10 0.12 0.11 0.10 0.09 0.06 0.13 0.32 0.72 0.46 0.24 0.13 0.15 0.15 0.09 0.14 0.12 0.15 0.14 0.15 0.14 0.08 0.11 0.08 0.10 0.11 0.19 0.23